Suomi 100 (43804 NORAD) Tracking and Keplerian Element Data

This shows tracking and keplerian element data for the satellite.

Feedback or suggestion? Click here.




ElementValue
Catalog43804
NameSuomi 100
Epoch Orbit3802
Epoch Day227.18691731
Epoch Year2019
RAAN298.4113
Inclination97.7392
Eccentricity0.0016398
Argument of Perigee133.8568
Mean Anonmoly226.4011
Mean Motion14.95292136
Decay Rate-1.77E-06
L11 43804U 18099AY 19227.18691731 -.00000177 00000-0 -10809-4 0 9992
L22 43804 97.7392 298.4113 0016398 133.8568 226.4011 14.95292136 38028

Live tracking and technical data element details for Suomi 100 (NORAD 43804). Suomi 100 can be tracked NOW for your location showing map with azimuth and elevation plus other details from your city location.

Track the satellite on the map from your city or location and see movement details for azimuth, elevation, latitude, longitude, range, height, and movement on the map or in text.







IsCatalogInMostPopularTable: catalog: 43804, numindb: 385
Update: records affected: 1



GetName: 43804 Suomi 100

Hit Count: updated at: Wed, 21 Aug 2019 02:31:04 GMT